TimeEDT,TemperatureF,Dew PointF,Humidity,Sea Level PressureIn,VisibilityMPH,Wind Direction,Wind SpeedMPH,Gust SpeedMPH,PrecipitationIn,Events,Conditions,WindDirDegrees,DateUTC
12:13 AM,30.2,28.4,93,29.78,-9999.0,North,-9999.0,-,0.01,,Unknown,0,2011-10-30 04:13:00
12:54 AM,-9999,-9999,N/A,29.74,-9999.0,North,-9999.0,-,0.01,,Unknown,0,2011-10-30 04:54:00
1:54 AM,-9999,-9999,N/A,29.73,-9999.0,North,-9999.0,-,N/A,,Unknown,0,2011-10-30 05:54:00
2:54 AM,-9999,-9999,N/A,29.74,-9999.0,North,-9999.0,-,N/A,,Unknown,0,2011-10-30 06:54:00
3:54 AM,-9999,-9999,N/A,29.75,-9999.0,North,-9999.0,-,N/A,,Unknown,0,2011-10-30 07:54:00
4:54 AM,-9999,-9999,N/A,29.76,-9999.0,North,-9999.0,-,N/A,,Unknown,0,2011-10-30 08:54:00
5:54 AM,-9999,-9999,N/A,29.77,5.0,North,-9999.0,-,N/A,,Unknown,0,2011-10-30 09:54:00
6:45 AM,-9999,-9999,N/A,29.79,5.0,North,-9999.0,-,N/A,,Haze,0,2011-10-30 10:45:00
6:54 AM,-9999,-9999,N/A,29.80,5.0,North,-9999.0,-,N/A,,Haze,0,2011-10-30 10:54:00
7:54 AM,-9999,-9999,N/A,29.85,-9999.0,North,-9999.0,-,N/A,,Unknown,0,2011-10-30 11:54:00
8:54 AM,-9999,-9999,N/A,29.90,10.0,North,-9999.0,-,N/A,,Scattered Clouds,0,2011-10-30 12:54:00
9:54 AM,-9999,-9999,N/A,29.94,10.0,North,23.0,34.5,N/A,,Scattered Clouds,360,2011-10-30 13:54:00
10:54 AM,-9999,-9999,N/A,29.97,10.0,North,23.0,34.5,N/A,,Scattered Clouds,350,2011-10-30 14:54:00
11:44 AM,-9999,-9999,N/A,29.99,10.0,North,23.0,34.5,N/A,,Scattered Clouds,350,2011-10-30 15:44:00
11:54 AM,-9999,-9999,N/A,30.00,-9999.0,North,-9999.0,-,N/A,,Unknown,0,2011-10-30 15:54:00
12:54 PM,-9999,-9999,N/A,30.02,-9999.0,North,-9999.0,-,N/A,,Unknown,0,2011-10-30 16:54:00
1:54 PM,-9999,-9999,N/A,30.04,-9999.0,North,-9999.0,-,N/A,,Unknown,0,2011-10-30 17:54:00
2:54 PM,-9999,-9999,N/A,30.08,-9999.0,North,-9999.0,-,N/A,,Unknown,0,2011-10-30 18:54:00
3:54 PM,-9999,-9999,N/A,30.10,-9999.0,North,-9999.0,-,N/A,,Unknown,0,2011-10-30 19:54:00
4:54 PM,-9999,-9999,N/A,30.13,-9999.0,North,-9999.0,-,N/A,,Unknown,0,2011-10-30 20:54:00
5:54 PM,-9999,-9999,N/A,30.14,-9999.0,North,-9999.0,-,N/A,,Unknown,0,2011-10-30 21:54:00
6:54 PM,-9999,-9999,N/A,30.17,-9999.0,North,-9999.0,-,N/A,,Unknown,0,2011-10-30 22:54:00
7:54 PM,-9999,-9999,N/A,30.19,-9999.0,North,-9999.0,-,N/A,,Unknown,0,2011-10-30 23:54:00
8:54 PM,-9999,-9999,N/A,30.21,-9999.0,North,-9999.0,-,N/A,,Unknown,0,2011-10-31 00:54:00
9:54 PM,-9999,-9999,N/A,30.24,-9999.0,North,-9999.0,-,N/A,,Unknown,0,2011-10-31 01:54:00
10:54 PM,-9999,-9999,N/A,30.26,-9999.0,North,-9999.0,-,N/A,,Unknown,0,2011-10-31 02:54:00
11:54 PM,-9999,-9999,N/A,30.27,-9999.0,North,-9999.0,-,N/A,,Unknown,0,2011-10-31 03:54:00